Youngstown, OH

12:05 AM EDT on June 25, 2017 (GMT -0400)
Youngstown-Warren Regional

Weather History for KYNG - December, 2013

Change the Weather History Date:

Saturday, December 14, 2013

  Actual Average Record
Temperature  
Mean Temperature 29 °F 30 °F  
Max Temperature 34 °F 37 °F 62 °F (1975)
Min Temperature 23 °F 24 °F 3 °F (1951)
Degree Days  
Heating Degree Days 36 35  
Month to date heating degree days 493 450  
Since 1 July heating degree days 1875 1779  
Cooling Degree Days 0 0  
Month to date cooling degree days 0 0  
Year to date cooling degree days 630 544  
Moisture  
Dew Point 25 °F    
Average Humidity 82    
Maximum Humidity 96    
Minimum Humidity 68    
Precipitation  
Precipitation 0.44 in 0.09 in 1.16 in (1977)
Month to date precipitation 1.11 1.41  
Year to date precipitation 36.72 37.33  
Snow  
Snow 4.30 in 0.50 in - ()
Month to date snowfall 11.3 6.3  
Since 1 July snowfall 25.4 10.7  
Snow Depth 2.00 in    
Sea Level Pressure  
Sea Level Pressure 29.97 in    
Wind  
Wind Speed 9 mph (ESE)    
Max Wind Speed 16 mph    
Max Gust Speed 22 mph    
Visibility 3 miles    
Events Rain , Snow    
T = Trace of Precipitation, MM = Missing Value Source: NWS Daily Summary

Daily Weather History Graph

Daily Weather History Graph

Search for Another Location

Airport or City:

Trip Planner

Search our weather history database for the weather conditions in past years. The results will help you decide how hot, cold, wet, or windy it might be!

Date:

Astronomy

Dec. 14, 2013 Rise Set
Actual Time 7:40 AM EST 4:54 PM EST
Civil Twilight 7:09 AM EST 5:25 PM EST
Nautical Twilight 6:34 AM EST 6:00 PM EST
Astronomical Twilight 6:01 AM EST 6:33 PM EST
Moon 3:16 PM EST (12/14) 4:59 AM EST (12/14)
Length of Visible Light 10h 15m
Length of Day
9h 13m
Waxing Gibbous, 93% of the Moon is Illuminated
Dec 14
Waxing Gibbous
Dec 17
Full
Dec 25
Last Quarter
Jan 1
New
Jan 7
First Quarter

Hourly Weather History & Observations

Time (EST) Temp. Windchill Dew Point Humidity Pressure Visibility Wind Dir Wind Speed Gust Speed Precip Events Conditions
12:51 AM 24.1 °F 17.0 °F 15.1 °F 69% 30.25 in 10.0 mi East 5.8 mph - N/A   Overcast
1:51 AM 24.1 °F 18.2 °F 16.0 °F 71% 30.25 in 8.0 mi East 4.6 mph - N/A   Overcast
2:14 AM 24.8 °F 19.1 °F 15.8 °F 69% 30.21 in 8.0 mi East 4.6 mph - 0.00 in Snow Light Snow
2:31 AM 24.8 °F 19.1 °F 17.6 °F 74% 30.21 in 2.0 mi ESE 4.6 mph - 0.00 in Snow Light Snow
2:40 AM 23.0 °F 17.0 °F 17.6 °F 80% 30.21 in 1.2 mi East 4.6 mph - 0.00 in Snow Light Snow
2:51 AM 23.0 °F 15.8 °F 18.0 °F 81% 30.25 in 1.5 mi East 5.8 mph - 0.00 in Snow Light Snow
3:04 AM 23.0 °F 14.7 °F 19.4 °F 86% 30.20 in 3.0 mi ENE 6.9 mph - 0.00 in Snow Light Snow
3:21 AM 24.8 °F 16.9 °F 19.4 °F 80% 30.19 in 4.0 mi ENE 6.9 mph - 0.01 in Snow Light Snow
3:51 AM 24.1 °F 16.0 °F 19.0 °F 81% 30.24 in 7.0 mi East 6.9 mph - 0.01 in Snow Light Snow
4:11 AM 24.8 °F 16.9 °F 19.4 °F 80% 30.18 in 2.5 mi East 6.9 mph - 0.00 in Snow Light Snow
4:51 AM 24.1 °F 16.0 °F 19.0 °F 81% 30.21 in 2.5 mi East 6.9 mph - 0.00 in Snow Light Snow
5:09 AM 24.8 °F 17.9 °F 19.4 °F 80% 30.16 in 4.0 mi East 5.8 mph - 0.00 in Snow Light Snow
5:51 AM 25.0 °F 16.3 °F 19.0 °F 78% 30.20 in 6.0 mi East 8.1 mph - 0.00 in Snow Light Snow
6:51 AM 25.0 °F 17.1 °F 19.9 °F 81% 30.21 in 4.0 mi East 6.9 mph - 0.00 in Snow Light Snow
7:51 AM 26.1 °F 18.4 °F 19.9 °F 78% 30.19 in 6.0 mi East 6.9 mph - 0.00 in Snow Light Snow
8:51 AM 26.1 °F 16.8 °F 19.9 °F 78% 30.17 in 8.0 mi East 9.2 mph - 0.00 in Snow Light Snow
9:51 AM 27.0 °F 18.7 °F 19.9 °F 75% 30.16 in 4.0 mi East 8.1 mph - 0.00 in Snow Light Snow
10:11 AM 28.4 °F 19.7 °F 21.2 °F 74% 30.11 in 1.5 mi ESE 9.2 mph - 0.00 in Snow Light Snow
10:35 AM 28.4 °F 19.7 °F 21.2 °F 74% 30.10 in 0.5 mi ESE 9.2 mph - 0.01 in Snow Snow
10:51 AM 27.0 °F 18.7 °F 24.1 °F 89% 30.14 in 0.5 mi ESE 8.1 mph - 0.02 in Snow Snow
11:51 AM 28.0 °F 18.6 °F 25.0 °F 88% 30.06 in 0.8 mi East 10.4 mph - 0.05 in Snow Light Snow
12:14 PM 28.4 °F 18.5 °F 26.6 °F 93% 29.99 in 0.8 mi East 11.5 mph - 0.02 in Snow Light Snow
12:51 PM 28.9 °F 19.2 °F 26.1 °F 89% 30.00 in 0.8 mi East 11.5 mph - 0.04 in Snow Light Snow
1:30 PM 30.2 °F 20.8 °F 26.6 °F 86% 29.90 in 1.0 mi East 11.5 mph - 0.02 in Snow Light Snow
1:51 PM 30.0 °F 20.0 °F 27.0 °F 88% 29.92 in 0.8 mi East 12.7 mph - 0.03 in Snow Light Snow
2:22 PM 30.2 °F 20.8 °F 28.4 °F 93% 29.86 in 0.5 mi East 11.5 mph - 0.03 in Snow Snow
2:51 PM 30.9 °F 22.2 °F 28.0 °F 89% 29.90 in 0.5 mi ESE 10.4 mph - 0.08 in Snow Snow
3:08 PM 30.2 °F 21.9 °F 28.4 °F 93% 29.84 in 0.2 mi ESE 9.2 mph - 0.03 in Snow Heavy Snow
3:31 PM 30.2 °F 21.3 °F 28.4 °F 93% 29.82 in 0.5 mi ESE 10.4 mph - 0.06 in Snow Snow
3:51 PM 32.0 °F 23.0 °F 30.0 °F 92% 29.86 in 0.8 mi ESE 11.5 mph - 0.07 in Snow Light Snow
4:51 PM 33.1 °F 23.9 °F 30.9 °F 92% 29.83 in 0.8 mi ESE 12.7 mph - 0.04 in Snow Light Snow
5:19 PM 33.8 °F 24.8 °F 30.2 °F 87% 29.77 in 1.5 mi SE 12.7 mph 21.9 mph 0.01 in Snow Light Snow
5:38 PM 33.8 °F 24.3 °F 30.2 °F 87% 29.75 in 2.5 mi ESE 13.8 mph - 0.02 in Snow Light Snow
5:51 PM 33.1 °F 23.0 °F 30.9 °F 92% 29.79 in 2.5 mi ESE 15.0 mph - 0.02 in Snow Light Snow
6:11 PM 33.8 °F 25.3 °F 30.2 °F 87% 29.74 in 4.0 mi ESE 11.5 mph - 0.00 in Snow Light Snow
6:51 PM 33.1 °F 23.0 °F 30.9 °F 92% 29.76 in 6.0 mi SE 15.0 mph - 0.00 in Snow Light Snow
7:51 PM 33.1 °F 24.4 °F 30.9 °F 92% 29.73 in 4.0 mi SE 11.5 mph - 0.01 in Rain , Snow Light Rain
8:39 PM 33.8 °F 27.0 °F 32.0 °F 93% 29.67 in 2.5 mi SE 8.1 mph - 0.00 in Rain , Snow Light Rain
8:51 PM 33.1 °F 28.7 °F 30.9 °F 92% 29.71 in 2.5 mi South 4.6 mph - 0.00 in Rain , Snow Light Rain
9:20 PM 33.8 °F 28.6 °F 32.0 °F 93% 29.66 in 2.5 mi SSE 5.8 mph - 0.01 in Rain Light Rain
9:37 PM 33.8 °F 27.0 °F 32.0 °F 93% 29.65 in 4.0 mi SE 8.1 mph - 0.01 in Rain Light Rain
9:51 PM 34.0 °F 27.2 °F 32.0 °F 92% 29.68 in 4.0 mi SE 8.1 mph - 0.02 in Rain Light Rain
10:37 PM 33.8 °F 28.6 °F 32.0 °F 93% 29.64 in 5.0 mi SSE 5.8 mph - 0.02 in Rain Light Rain
10:51 PM 34.0 °F 28.8 °F 32.0 °F 92% 29.67 in 3.0 mi SSE 5.8 mph - 0.03 in Rain Light Rain
11:30 PM 33.8 °F 27.7 °F 33.8 °F 100% 29.62 in 4.0 mi South 6.9 mph - 0.01 in Rain Light Rain
11:51 PM 34.0 °F 27.2 °F 33.1 °F 96% 29.65 in 3.0 mi South 8.1 mph - 0.01 in Rain Light Rain